Location: Castelnau
(43.6639°N, 0.8431°W)
Time: 23:30:43
(UTC+00:00)

Daily predictions for brighter satellites

Satellite Brightness Start Highest point End
(mag) Time Altitude Azimuth Time Altitude Azimuth Time Altitude Azimuth
ARGOS 3.9 17:57:02 10° S 18:02:20 62° W 18:07:40 10° NNW
Cosmos 1674 Rocket 4.2 17:59:49 10° N 18:03:55 36° ENE 18:08:00 10° SE
YAOGAN 1 3.5 18:02:06 10° SE 18:05:43 27° ENE 18:09:22 10° N
Cosmos 968 Rocket 4.5 18:02:18 10° SSE 18:06:31 25° E 18:10:47 10° NE
Okean O Rocket 2.7 18:06:04 10° ESE 18:09:37 25° ENE 18:13:11 10° NNE
Lacrosse 4 Rocket 3.2 18:09:49 10° SE 18:11:18 12° ESE 18:12:46 10° E
USA 229 DEB 4.4 18:04:35 10° NW 18:12:00 71° WSW 18:19:52 10° SSE
USA 229 4.4 18:04:41 10° NW 18:12:06 71° WSW 18:19:58 10° SSE
Nadezhda 4 Rocket 4.4 18:08:10 10° SSE 18:14:01 41° E 18:19:52 10° NNE
SKYMED 2 3.5 18:10:59 10° NNE 18:15:21 82° ESE 18:19:42 10° S
Cosmos 2227 Rocket 4.3 18:12:28 10° NW 18:17:25 32° WSW 18:22:20 10° SSW
PSLV R/B 3.6 18:18:07 10° SSE 18:21:45 66° ENE 18:25:24 10° N
Cosmos 1726 2.1 18:18:41 10° S 18:22:15 57° E 18:25:51 10° NNE
Cosmos 2322 Rocket 3.3 18:17:57 10° SSE 18:22:19 23° E 18:26:40 10° NE
Cosmos 2285 Rocket 4.3 18:16:18 10° N 18:22:23 45° ENE 18:28:29 10° SE
CZ-4 R/B 4.4 18:21:00 10° SSE 18:25:06 89° ENE 18:29:14 10° NNW
Cosmos 1470 4.0 18:24:16 10° SE 18:27:04 20° E 18:29:53 10° NE
CZ-4B R/B 3.3 18:22:44 10° SSE 18:27:58 57° ENE 18:33:21 10° N
Cosmos 1980 Rocket 2.8 18:22:31 10° SW 18:28:06 62° WNW 18:33:41 10° NNE
Cosmos 841 Rocket 3.6 18:23:55 10° NNW 18:29:06 79° WSW 18:34:14 10° SSE
Cosmos 1378 Rocket 3.5 18:26:11 10° N 18:30:33 69° E 18:34:51 10° SSE
Timation 2 Rocket 4.0 18:25:40 10° NNW 18:32:08 87° ENE 18:38:16 10° SSE
ARGOS Delta rocket 3.9 18:27:29 10° NNE 18:32:41 65° E 18:37:34 10° S
DMSP B5D2-2 4.4 18:28:10 10° N 18:33:26 72° WNW 18:38:39 10° SSW
Cosmos 2292 Rocket 4.2 18:32:12 10° SSE 18:37:04 38° E 18:40:53 10° NNE
Meteor 2-14 Rocket 4.4 18:32:46 10° S 18:38:49 82° E 18:44:55 10° N
Cosmos 1733 Rocket 4.0 18:36:53 10° SSW 18:41:12 52° WNW 18:45:34 10° N
USA 215 3.9 18:39:18 10° NE 18:45:38 54° NNW 18:51:57 10° WSW
COBE Rocket 3.8 18:41:17 10° SSE 18:46:08 83° ENE 18:50:54 10° N
Cosmos 2221 Rocket 4.4 18:44:07 10° NNW 18:48:33 56° W 18:52:59 10° S
Cosmos 1844 Rocket 3.6 18:45:26 10° N 18:50:21 29° NE 18:52:59 21° E
Cosmos 2278 4.0 18:45:48 10° SSW 18:51:28 73° WNW 18:57:11 10° NNE
SL-16 R/B 2.2 18:46:46 10° S 18:52:17 56° ESE 18:57:50 10° NNE
Cosmos 1092 Rocket 4.2 18:49:27 10° SSE 18:55:28 49° E 19:01:27 10° NNE
Cosmos 1570 Rocket 4.0 18:50:47 10° NNW 18:56:00 62° ENE 19:00:57 11° SSE
Landsat 5 4.3 18:53:09 10° NE 18:57:08 30° E 19:01:01 10° SSE
Resurs 01 Rocket 3.9 19:01:19 10° NE 19:01:19 10° NE 19:01:30 10° NE
Meteor 2-21 Rocket 4.4 18:55:29 10° S 19:01:32 86° E 19:07:36 10° N
SJ-6B 3.7 19:02:07 28° ENE 19:02:07 28° ENE 19:05:21 10° N
DMSP B5D1-3 4.4 18:57:29 10° NNE 19:02:38 77° ESE 19:07:44 10° S
HJ-1C 3.4 19:00:12 10° S 19:03:17 72° WSW 19:06:24 10° NNW
Cosmos 1437 Rocket 2.5 19:00:50 10° S 19:04:35 83° E 19:08:19 10° NNE
Cosmos 2263 Rocket 3.2 19:04:13 10° NW 19:09:40 48° WSW 19:15:06 10° S
Meteor 1-24 Rocket 3.6 19:06:22 10° N 19:11:38 60° ENE 19:16:12 14° SSE
OAO 2 Rocket 4.5 19:11:10 10° WSW 19:15:24 29° S 19:17:05 24° SSE
Meteor 2-16 Rocket 4.4 19:09:21 10° S 19:15:29 88° W 19:21:41 10° N
SL-4 R/B 2.4 19:11:21 10° WNW 19:15:50 74° SW 19:17:52 33° SE
Feng Yun 1-1 Rocket 4.1 19:10:25 10° SSE 19:15:54 88° ENE 19:21:21 10° NNW
Cosmos 2084 Rocket 3.4 19:15:40 10° NNW 19:19:27 50° NE 19:19:51 48° ENE
USA 267 3.6 19:14:27 14° SE 19:20:05 63° SW 19:26:36 10° NW
Okean-O 3.0 19:20:29 41° E 19:20:51 42° ENE 19:25:02 10° N
Cosmos 1486 Rocket 4.2 19:16:45 10° S 19:21:48 46° ESE 19:26:53 10° NNE
CZ-4 R/B 1.8 19:17:58 10° S 19:22:06 65° WSW 19:26:17 10° NNW
OBJECT-B 2.9 19:24:55 13° N 19:24:55 13° N 19:25:19 10° N
ISS -1.5 19:20:16 10° W 19:22:51 20° SW 19:24:26 15° S
Cosmos 2208 Rocket 4.0 19:19:17 10° NNW 19:24:42 86° ENE 19:28:16 22° SSE
IGS 5A 3.6 19:24:37 49° ENE 19:24:43 49° ENE 19:28:43 10° N
Cosmos 1844 4.1 19:19:45 10° NNW 19:25:03 43° ENE 19:26:13 38° E
DNEPR-1 R/B 3.7 19:21:19 10° SSW 19:25:50 67° ESE 19:30:36 13° NE
Meteor 1-22 Rocket 4.1 19:21:28 10° S 19:26:52 90° W 19:32:32 10° N
Cosmos 2333 Rocket 4.1 19:23:41 10° SSE 19:24:21 13° SSE 19:24:21 13° SSE
Cosmos 1300 Rocket 3.9 19:30:15 44° NE 19:30:15 44° NE 19:33:38 10° NNE
CSL-04 Debris 4.1 19:28:02 28° SSE 19:30:57 70° ENE 19:36:19 10° N
Cosmos 1428 Rocket 4.4 19:24:51 10° S 19:31:01 89° ESE 19:37:19 10° N
Cosmos 1627 Rocket 4.3 19:28:24 10° S 19:34:30 86° E 19:40:40 10° N
Cosmos 2360 Rocket 2.1 19:31:16 10° S 19:36:49 60° ESE 19:42:22 10° NNE
Cosmos 1782 Rocket 3.7 19:33:26 10° SSW 19:37:45 70° W 19:42:07 10° N
USA 81 3.9 19:35:03 10° N 19:40:22 85° E 19:43:21 27° S
Cosmos 1025 Rocket 2.9 19:40:01 10° N 19:44:21 88° W 19:44:50 70° S
Okean O Rocket 3.3 19:41:53 10° SSW 19:45:48 32° W 19:49:46 10° NNW
Lacrosse 4 Rocket 1.6 19:45:14 10° SW 19:49:17 65° WNW 19:50:17 47° N
Cosmos 2026 Rocket 4.1 19:45:03 10° SSW 19:51:06 73° W 19:57:10 10° N
USA 186 3.5 19:55:51 32° NW 19:55:51 32° NW 19:57:55 10° NNW
CSL-04 Rocket 3.6 19:55:05 44° S 19:56:52 80° WSW 20:02:19 10° NNW
Landsat 7 4.0 20:04:05 65° N 20:04:05 65° N 20:08:08 10° NNW
Cosmos 1553 Rocket 3.9 19:58:48 10° N 20:05:12 82° E 20:06:33 59° SSE
Cosmos 2322 Rocket 2.8 20:00:20 10° SW 20:05:55 55° WNW 20:11:33 10° NNE
Cosmos 1975 Rocket 4.1 20:05:23 10° NNW 20:09:34 43° W 20:10:19 39° WSW
NOSS 3-4 (A) 4.4 20:05:20 10° NNW 20:11:41 39° NE 20:12:04 38° NE
NOSS 3-4 (C) 4.5 20:05:26 10° NNW 20:11:47 38° NE 20:12:10 38° NE
NOSS 3-3 (A) 3.8 20:14:07 10° SW 20:19:39 82° NW 20:20:03 76° N
NOSS 3-3 (C) 3.7 20:14:13 10° SW 20:19:44 83° NW 20:19:57 81° NNW
Aureole 1 Rocket 4.0 20:16:14 10° SSW 20:23:50 89° WNW 20:29:52 10° NNE
Cosmos 1844 Rocket 3.4 20:29:02 10° NW 20:34:26 47° WSW 20:34:40 47° WSW
Resurs 01 Rocket 3.8 20:38:53 21° NNW 20:38:53 21° NNW 20:40:23 10° NNW
SL-16 R/B 4.2 20:32:07 10° WSW 20:36:45 25° NW 20:41:24 10° N
Cosmos 2278 Rocket 4.0 20:45:13 10° N 20:47:32 22° N 20:47:32 22° N
Cosmos 2360 Rocket 4.2 21:16:44 10° WSW 21:21:13 24° NW 21:25:44 10° N
ATLAS 2AS CENTAUR R/B 4.3 21:45:23 10° NNW 21:49:00 27° N 21:49:00 27° N
